FW7433 Weather Reports


time (UTC)temp
C
wind
direction
speed
KPH
gust
KPH
rain 1hr
cm
rain 24hr
cm
rain mn
cm
humidity
%
barometer
mb
20260902192040 23 17 0.0 3.2 0.00 0.56 0.00 67 1021.8
20260902191521 23 74 0.0 3.2 0.00 0.56 0.00 68 1021.8
20260902191102 23 74 1.6 3.2 0.00 0.56 0.00 67 1021.8
20260902190546 23 172 0.0 1.6 0.00 0.56 0.00 69 1021.9
20260902190032 23 65 0.0 1.6 0.00 0.56 0.00 69 1021.9
20260902185602 23 47 0.0 1.6 0.00 0.56 0.00 68 1021.9
20260902185041 23 47 0.0 6.4 0.00 0.56 0.00 69 1021.7
20260902184519 24 99 0.0 3.2 0.00 0.56 0.00 68 1021.8
20260902184102 23 99 0.0 3.2 0.00 0.56 0.00 69 1021.9
20260902183541 23 114 1.6 3.2 0.00 0.56 0.00 71 1022.0
20260902183020 23 228 0.0 3.2 0.00 0.86 0.00 70 1022.0
20260902182601 23 228 0.0 3.2 0.00 0.86 0.00 71 1022.1
20260902182040 23 34 0.0 3.2 0.00 0.86 0.00 70 1022.0
20260902181519 23 86 0.0 6.4 0.00 0.86 0.00 72 1021.9
20260902181101 23 232 0.0 6.4 0.00 0.86 0.00 71 1021.8
20260902180539 23 300 0.0 6.4 0.00 0.86 0.00 72 1021.9
20260902180028 23 90 0.0 3.2 0.00 0.86 0.00 73 1021.7
20260902175603 23 209 0.0 3.2 0.00 0.86 0.00 75 1021.8
20260902175040 23 214 0.0 1.6 0.00 0.86 0.00 74 1021.8
20260902174519 23 214 0.0 6.4 0.00 0.86 0.00 73 1021.9
20260902174101 23 214 1.6 6.4 0.00 0.86 0.00 73 1021.8
20260902173543 23 344 0.0 1.6 0.00 0.86 0.00 73 1021.9
20260902173019 22 319 0.0 0.0 0.00 1.19 0.00 73 1022.0
20260902172602 22 230 0.0 3.2 0.00 1.19 0.00 73 1022.0
20260902172041 22 215 0.0 6.4 0.00 1.19 0.00 74 1022.2
20260902171520 22 134 0.0 6.4 0.00 1.19 0.00 74 1022.3
20260902171104 22 79 0.0 3.2 0.00 1.19 0.00 75 1022.1
20260902170539 22 111 0.0 3.2 0.00 1.19 0.00 76 1022.3
20260902170020 22 230 0.0 1.6 0.00 1.19 0.00 75 1022.4
20260902165603 22 169 0.0 1.6 0.00 1.19 0.00 77 1022.4
20260902165039 22 166 0.0 3.2 0.00 1.19 0.00 77 1022.5
20260902164518 21 219 0.0 6.4 0.00 1.19 0.00 77 1022.5
20260902164101 21 219 0.0 6.4 0.00 1.19 0.00 78 1022.4
20260902163543 21 44 0.0 3.2 0.00 1.19 0.00 80 1022.5
20260902163019 21 186 0.0 1.6 0.00 1.19 0.00 80 1022.6
20260902162605 21 186 0.0 1.6 0.00 1.19 0.00 79 1022.5
20260902162043 21 207 0.0 3.2 0.00 1.19 0.00 82 1022.6
20260902161527 21 211 0.0 3.2 0.00 1.19 0.00 80 1022.6
20260902161058 20 34 0.0 6.4 0.00 1.19 0.00 81 1022.5
20260902160532 20 270 0.0 9.7 0.00 1.19 0.00 82 1022.5
20260902160010 20 250 0.0 11.3 0.00 1.19 0.00 80 1022.6
20260902155552 20 249 1.6 9.7 0.00 1.19 0.00 82 1022.7
20260902155032 20 222 0.0 6.4 0.00 1.19 0.00 83 1022.8
20260902154511 20 229 0.0 1.6 0.00 1.19 0.00 84 1023.0
20260902154055 20 236 0.0 6.4 0.00 1.19 0.00 83 1023.2
20260902153535 20 234 0.0 12.9 0.00 1.19 0.00 86 1023.1
20260902153013 19 259 1.6 12.9 0.00 1.22 0.00 84 1023.1
20260902152557 19 240 0.0 3.2 0.00 1.22 0.00 86 1023.2
20260902152038 19 226 0.0 6.4 0.00 1.22 0.00 86 1023.3
20260902151515 18 192 0.0 1.6 0.00 1.22 0.00 87 1023.3
20260902151056 18 182 0.0 6.4 0.00 1.22 0.00 88 1023.4
20260902150534 18 134 0.0 6.4 0.00 1.22 0.00 87 1023.3
20260902150013 18 130 0.0 3.2 0.00 1.22 0.00 90 1023.2
20260902145554 18 221 0.0 3.2 0.00 1.22 0.00 90 1023.2
20260902145036 18 188 0.0 3.2 0.00 1.22 0.00 90 1023.2
20260902144510 18 211 0.0 6.4 0.00 1.22 0.00 91 1023.2
20260902144053 18 214 0.0 6.4 0.00 1.22 0.00 91 1023.2
20260902143530 18 222 0.0 6.4 0.00 1.22 0.00 92 1023.1
20260902143010 18 230 0.0 1.6 0.00 1.37 0.00 94 1023.0
20260902142551 17 230 0.0 1.6 0.00 1.37 0.00 94 1022.9
20260902142029 17 230 0.0 3.2 0.00 1.37 0.00 94 1023.0
20260902141507 17 230 0.0 3.2 0.00 1.37 0.00 95 1022.9
20260902141049 17 219 0.0 6.4 0.00 1.37 0.00 94 1022.8
20260902140528 17 209 0.0 4.8 0.00 1.37 0.00 95 1022.7
20260902140006 17 222 0.0 4.8 0.00 1.37 0.00 95 1022.6
20260902135549 17 332 0.0 1.6 0.00 1.37 0.00 96 1022.6
20260902135027 17 79 0.0 3.2 0.00 1.37 0.00 96 1022.6
20260902134509 17 222 0.0 6.4 0.00 1.37 0.00 96 1022.6
20260902134048 17 260 0.0 8.0 0.00 1.37 0.00 96 1022.6
20260902133530 17 226 0.0 6.4 0.00 1.37 0.00 97 1022.6
20260902133005 17 227 1.6 6.4 0.00 1.50 0.00 97 1022.4
20260902132546 17 284 0.0 6.4 0.00 1.50 0.00 97 1022.3
20260902132027 17 210 0.0 3.2 0.00 1.50 0.00 97 1022.3
20260902131504 17 248 0.0 6.4 0.00 1.50 0.00 97 1022.3
20260902131048 17 216 0.0 6.4 0.00 1.50 0.00 97 1022.3
20260902130525 17 228 0.0 8.0 0.00 1.50 0.00 97 1022.5
20260902130005 17 218 0.0 1.6 0.00 1.50 0.00 97 1022.4
20260902125545 17 218 0.0 3.2 0.00 1.50 0.00 97 1022.4
20260902125025 17 226 0.0 3.2 0.00 1.50 0.00 98 1022.6
20260902124504 17 226 0.0 1.6 0.00 1.50 0.00 97 1022.6
20260902124046 17 226 0.0 3.2 0.00 1.50 0.00 97 1022.7
20260902123528 16 226 0.0 3.2 0.00 1.50 0.00 97 1022.6
20260902123004 16 226 0.0 0.0 0.00 1.60 0.00 97 1022.7
20260902122546 16 226 0.0 1.6 0.00 1.60 0.00 97 1022.6
20260902122024 16 226 0.0 3.2 0.00 1.60 0.00 97 1022.6
20260902121502 16 226 0.0 3.2 0.00 1.60 0.00 97 1022.6
20260902121045 16 226 0.0 0.0 0.00 1.60 0.00 97 1022.8
20260902120523 16 226 0.0 0.0 0.00 1.60 0.00 97 1022.9
20260902120044 16 226 0.0 0.0 0.00 1.60 0.00 97 1022.9
20260902115528 16 226 0.0 0.0 0.00 1.60 0.00 97 1023.2
20260902115003 16 226 0.0 0.0 0.00 1.60 0.00 97 1023.1
20260902114547 16 226 0.0 0.0 0.00 1.60 0.00 97 1023.1
20260902114030 16 226 0.0 0.0 0.00 1.60 0.00 97 1023.2
20260902113502 16 226 0.0 0.0 0.00 1.60 0.00 97 1023.1
20260902113046 16 226 0.0 0.0 0.00 1.60 0.00 97 1023.0
20260902112524 16 226 0.0 0.0 0.00 1.60 0.00 97 1022.9
20260902112003 15 226 0.0 0.0 0.00 1.60 0.00 97 1022.8
20260902111549 15 226 0.0 0.0 0.00 1.60 0.00 97 1022.8
20260902111025 15 226 0.0 0.0 0.00 1.60 0.00 97 1022.8
20260902110506 15 226 0.0 0.0 0.00 1.60 0.00 97 1022.8
20260902110047 15 226 0.0 0.0 0.00 1.60 0.00 97 1022.8
20260902105525 15 226 0.0 3.2 0.00 1.60 0.00 97 1022.7
20260902105010 15 226 0.0 3.2 0.00 1.60 0.00 97 1022.7
20260902104548 15 241 0.0 0.0 0.00 1.60 0.00 97 1022.5
20260902104028 15 241 0.0 0.0 0.00 1.60 0.00 97 1022.3
20260902103505 15 241 0.0 0.0 0.00 1.60 0.00 97 1022.4
20260902103050 15 241 0.0 0.0 0.00 1.60 0.00 97 1022.3
20260902102528 15 241 0.0 0.0 0.00 1.60 0.00 97 1022.4
20260902102007 15 241 0.0 0.0 0.00 1.60 0.00 97 1022.3
20260902101550 15 241 0.0 0.0 0.00 1.60 0.00 97 1022.3
20260902101033 15 241 0.0 0.0 0.00 1.60 0.00 97 1022.2
20260902100506 15 241 0.0 0.0 0.00 1.60 0.00 97 1022.2
20260902100050 15 241 0.0 0.0 0.00 1.60 0.00 97 1022.2
20260902095527 15 241 0.0 0.0 0.00 1.60 0.00 97 1021.9
20260902095006 15 241 0.0 0.0 0.00 1.60 0.00 97 1021.8
20260902094554 15 241 0.0 0.0 0.00 1.60 0.00 97 1021.8
20260902094028 15 241 0.0 0.0 0.00 1.60 0.00 97 1021.8
20260902093507 15 241 0.0 0.0 0.00 1.60 0.00 97 1021.7
20260902093050 15 241 0.0 0.0 0.00 1.60 0.00 97 1021.8
20260902092528 15 241 0.0 0.0 0.00 1.60 0.00 97 1021.7
20260902092006 15 241 0.0 0.0 0.00 1.60 0.00 97 1021.6
20260902091551 15 241 0.0 0.0 0.00 1.60 0.00 97 1021.6
20260902091029 15 241 0.0 0.0 0.00 1.60 0.00 97 1021.6
20260902090508 15 241 0.0 1.6 0.00 1.60 0.00 97 1021.6
20260902090052 15 241 0.0 1.6 0.00 1.60 0.00 97 1021.5
20260902085529 15 196 0.0 1.6 0.00 1.60 0.00 97 1021.5
20260902085009 15 196 0.0 1.6 0.00 1.60 0.00 97 1021.5
20260902084555 15 196 0.0 1.6 0.00 1.60 0.00 97 1021.4
20260902084031 15 196 0.0 0.0 0.00 1.60 0.00 97 1021.6
20260902083516 15 196 0.0 0.0 0.00 1.60 0.00 97 1021.6
20260902083053 15 196 0.0 0.0 0.00 1.60 0.00 97 1021.5
20260902082532 15 196 0.0 0.0 0.00 1.60 0.00 97 1021.5
20260902082014 15 196 0.0 0.0 0.00 1.60 0.00 97 1021.3
20260902081556 15 196 0.0 0.0 0.00 1.60 0.00 97 1021.3
20260902081032 15 196 0.0 0.0 0.00 1.60 0.00 97 1021.3
20260902080512 15 196 0.0 0.0 0.00 1.60 0.00 97 1021.4
20260902080055 15 196 0.0 0.0 0.00 1.60 0.00 97 1021.3
20260902075533 15 196 0.0 0.0 0.00 1.60 0.00 97 1021.3
20260902075014 15 196 0.0 0.0 0.00 1.60 0.00 97 1021.4
20260902074610 15 196 0.0 0.0 0.00 1.60 0.00 97 1021.5
20260902074035 15 196 0.0 0.0 0.00 1.60 0.00 97 1021.6
20260902073512 15 196 0.0 0.0 0.00 1.60 0.00 97 1021.7
20260902073055 15 196 0.0 0.0 0.00 1.60 0.00 97 1021.7
20260902072533 15 196 0.0 1.6 0.00 1.60 0.00 97 1021.7
20260902072015 15 180 0.0 0.0 0.00 1.60 0.00 97 1021.6
20260902071557 15 180 0.0 0.0 0.00 1.60 0.00 97 1021.5
20260902071034 15 180 0.0 0.0 0.00 1.60 0.00 97 1021.4
20260902070513 15 180 0.0 1.6 0.00 1.60 0.00 97 1021.4
20260902070056 15 180 0.0 0.0 0.00 1.60 0.00 97 1021.4
20260902065536 15 180 0.0 3.2 0.00 1.60 0.00 97 1021.5
20260902065017 15 214 0.0 0.0 0.00 1.60 0.00 97 1021.5
20260902064600 15 214 0.0 0.0 0.00 1.60 0.00 97 1021.6
20260902064038 15 214 0.0 0.0 0.00 1.60 0.00 97 1021.5
20260902063522 15 214 0.0 0.0 0.00 1.60 0.00 97 1021.4
20260902063116 15 214 0.0 0.0 0.00 1.60 0.00 97 1021.3
20260902062540 15 214 0.0 0.0 0.00 1.60 0.00 97 1021.3
20260902062019 15 214 0.0 1.6 0.00 1.60 0.00 97 1021.4
20260902061600 15 214 0.0 6.4 0.00 1.60 0.00 97 1021.3
20260902061041 15 214 0.0 6.4 0.00 1.60 0.00 97 1021.3
20260902060520 15 167 0.0 0.0 0.00 1.60 0.00 97 1021.1
20260902060000 15 167 0.0 0.0 0.00 1.60 0.00 97 1021.2
20260902055543 15 167 0.0 0.0 0.00 1.60 0.00 97 1021.3
20260902055022 15 167 0.0 0.0 0.00 1.60 0.00 97 1021.3
20260902054504 15 167 0.0 0.0 0.00 1.60 0.00 97 1021.2
20260902054047 15 167 0.0 0.0 0.00 1.60 0.00 97 1021.3
20260902053522 15 167 0.0 0.0 0.00 1.60 0.00 97 1021.4
20260902053000 15 167 0.0 0.0 0.00 1.60 1.60 97 1021.3
20260902052545 15 167 0.0 0.0 0.00 1.60 1.60 97 1021.2
20260902052021 15 167 0.0 0.0 0.00 1.60 1.60 97 1021.1
20260902051608 15 167 0.0 0.0 0.00 1.60 1.60 97 1021.1
20260902051043 15 167 0.0 0.0 0.00 1.60 1.60 97 1021.1
20260902050522 15 167 0.0 0.0 0.00 1.60 1.60 97 1021.0
20260902050002 15 167 0.0 0.0 0.00 1.60 1.60 97 1021.1
20260902045544 15 167 0.0 0.0 0.00 1.60 1.60 97 1021.1
20260902045022 15 167 0.0 0.0 0.00 1.60 1.60 96 1021.2
20260902044503 15 167 0.0 0.0 0.00 1.60 1.60 96 1021.1
20260902044044 15 167 0.0 0.0 0.00 1.60 1.60 96 1021.0
20260902043522 15 167 0.0 0.0 0.00 1.60 1.60 96 1021.1
20260902043001 15 167 0.0 0.0 0.00 1.60 1.60 96 1021.0
20260902042547 15 167 0.0 0.0 0.00 1.60 1.60 96 1020.9
20260902042024 15 167 0.0 0.0 0.00 1.60 1.60 96 1020.9
20260902041502 15 167 0.0 0.0 0.00 1.60 1.60 96 1020.8
20260902041044 15 167 0.0 0.0 0.00 1.60 1.60 96 1020.8
20260902040524 15 167 0.0 0.0 0.00 1.60 1.60 96 1021.0
20260902040045 15 167 0.0 0.0 0.00 1.60 1.60 96 1020.9
20260902035522 15 167 0.0 0.0 0.00 1.60 1.60 97 1020.4
20260902035006 15 167 0.0 0.0 0.00 1.60 1.60 97 1020.5
20260902034550 15 167 0.0 0.0 0.00 1.60 1.60 97 1020.4
20260902034025 15 167 0.0 0.0 0.00 1.60 1.60 97 1020.2
20260902033504 15 167 0.0 0.0 0.00 1.60 1.60 97 1020.2
20260902033051 15 167 0.0 0.0 0.00 1.60 1.60 97 1020.2
20260902032528 15 167 0.0 0.0 0.00 1.60 1.60 97 1020.3
20260902032004 15 167 0.0 0.0 0.00 1.60 1.60 96 1020.2
20260902031548 15 167 0.0 0.0 0.00 1.60 1.60 96 1020.3
20260902031027 15 167 0.0 0.0 0.00 1.60 1.60 96 1020.3
20260902030501 15 167 0.0 0.0 0.00 1.60 1.60 96 1020.2
20260902030049 15 167 0.0 0.0 0.00 1.60 1.60 96 1020.2
20260902025525 15 167 0.0 0.0 0.00 1.60 1.60 96 1020.3
20260902025004 15 167 0.0 0.0 0.00 1.60 1.60 96 1020.1
20260902024549 15 167 0.0 0.0 0.00 1.60 1.60 96 1020.1
20260902024025 15 167 0.0 0.0 0.00 1.60 1.60 97 1020.3
20260902023505 15 167 0.0 0.0 0.00 1.60 1.60 97 1020.1
20260902023047 15 167 0.0 0.0 0.00 1.60 1.60 97 1020.1
20260902022526 15 167 0.0 0.0 0.00 1.60 1.60 97 1020.1
20260902022005 15 167 0.0 0.0 0.00 1.60 1.60 97 1020.2
20260902021551 15 167 0.0 0.0 0.00 1.60 1.60 97 1020.4
20260902021027 15 167 0.0 0.0 0.00 1.60 1.60 96 1020.2
20260902020508 15 167 0.0 1.6 0.00 1.60 1.60 96 1020.2
20260902020051 15 167 0.0 0.0 0.00 1.60 1.60 96 1020.2
20260902015527 15 167 0.0 0.0 0.00 1.60 1.60 96 1020.3
20260902015007 15 167 0.0 0.0 0.00 1.60 1.60 96 1020.1
20260902014555 15 167 0.0 0.0 0.00 1.60 1.60 96 1020.1
20260902014030 15 167 0.0 0.0 0.00 1.60 1.60 96 1020.1
20260902013509 15 167 0.0 0.0 0.00 1.60 1.60 96 1020.2
20260902013058 15 167 0.0 0.0 0.00 1.60 1.60 96 1020.2
20260902012535 15 167 0.0 0.0 0.00 1.60 1.60 96 1020.3
20260902012014 15 167 0.0 0.0 0.00 1.60 1.60 96 1020.1
20260902011554 15 167 0.0 0.0 0.00 1.60 1.60 96 1019.9
20260902011033 15 167 0.0 0.0 0.00 1.60 1.60 96 1019.9
20260902010509 15 167 0.0 0.0 0.00 1.60 1.60 96 1020.0
20260902010056 15 167 0.0 0.0 0.00 1.60 1.60 96 1020.0
20260902005532 15 167 0.0 0.0 0.00 1.60 1.60 96 1020.0
20260902005013 15 167 0.0 0.0 0.00 1.60 1.60 96 1020.0
20260902004559 15 167 0.0 0.0 0.00 1.60 1.60 96 1020.0
20260902004033 15 167 0.0 0.0 0.00 1.60 1.60 96 1019.8
20260902003510 15 167 0.0 0.0 0.00 1.60 1.60 96 1019.7
20260902003127 15 167 0.0 0.0 0.00 1.60 1.60 96 1019.8
20260902002527 15 167 0.0 0.0 0.00 1.60 1.60 96 1019.7
20260902002007 15 167 0.0 0.0 0.00 1.60 1.60 96 1019.6
20260902001550 15 167 0.0 0.0 0.00 1.60 1.60 96 1019.6
20260902001028 15 167 0.0 0.0 0.00 1.60 1.60 96 1019.7
20260902000512 15 167 0.0 0.0 0.00 1.60 1.60 96 1019.8
20260902000050 15 167 0.0 0.0 0.00 1.60 1.60 96 1019.8
20260901235528 15 167 0.0 0.0 0.00 1.60 1.60 96 1019.8
20260901235006 15 167 0.0 0.0 0.00 1.60 1.60 96 1019.8
20260901234552 15 167 0.0 0.0 0.00 1.60 1.60 96 1019.7
20260901234030 15 167 0.0 0.0 0.00 1.60 1.60 96 1019.5
20260901233511 15 167 0.0 0.0 0.00 1.60 1.60 96 1019.5
20260901233053 15 167 0.0 0.0 0.00 1.60 1.60 96 1019.3
20260901232531 15 167 0.0 0.0 0.00 1.60 1.60 96 1019.5
20260901232009 15 167 0.0 0.0 0.00 1.60 1.60 96 1019.5
20260901231600 15 167 0.0 0.0 0.00 1.60 1.60 96 1019.6
20260901231034 15 167 0.0 0.0 0.00 1.60 1.60 96 1019.6
20260901230509 15 167 0.0 0.0 0.00 1.60 1.60 96 1019.6
20260901230052 15 167 0.0 0.0 0.00 1.60 1.60 96 1019.6
20260901225532 15 167 0.0 0.0 0.00 1.60 1.60 96 1019.6
20260901225009 15 167 0.0 0.0 0.00 1.60 1.60 96 1019.5
20260901224552 15 167 0.0 0.0 0.00 1.60 1.60 96 1019.4
20260901224030 15 167 0.0 0.0 0.00 1.60 1.60 96 1019.5
20260901223509 15 167 0.0 0.0 0.00 1.60 1.60 96 1019.6
20260901223053 15 167 0.0 1.6 0.00 1.60 1.60 96 1019.6
20260901222536 15 167 0.0 1.6 0.00 1.60 1.60 96 1019.5
20260901222008 15 174 0.0 1.6 0.00 1.60 1.60 96 1019.5
20260901221551 15 116 0.0 0.0 0.00 1.60 1.60 96 1019.5
20260901221031 15 86 0.0 0.0 0.00 1.60 1.60 96 1019.6
20260901220510 15 86 0.0 0.0 0.00 1.60 1.60 96 1019.6
20260901220053 15 86 0.0 3.2 0.03 1.60 1.60 96 1019.7
20260901215532 15 86 0.0 3.2 0.03 1.60 1.60 96 1019.6
20260901215014 15 241 0.0 3.2 0.03 1.60 1.60 96 1019.6
20260901214555 15 188 0.0 0.0 0.03 1.60 1.60 96 1019.5
20260901214034 15 188 0.0 3.2 0.03 1.60 1.60 96 1019.6
20260901213511 15 188 0.0 3.2 0.03 1.60 1.60 96 1019.7
20260901213056 15 215 0.0 1.6 0.03 1.60 1.60 96 1019.6
20260901212532 15 197 0.0 1.6 0.05 1.60 1.60 96 1019.3
20260901212009 15 197 0.0 3.2 0.05 1.60 1.60 96 1019.4
20260901211553 15 197 0.0 3.2 0.08 1.60 1.60 96 1019.4
20260901211031 15 188 0.0 3.2 0.10 1.60 1.60 95 1019.4
20260901210510 15 220 0.0 3.2 0.13 1.60 1.60 96 1019.3
20260901210120 15 28 0.0 3.2 0.13 1.57 1.57 96 1019.3
20260901205531 15 257 0.0 0.0 0.18 1.57 1.57 95 1019.3
20260901205013 15 257 0.0 0.0 0.20 1.57 1.57 96 1019.3
20260901204552 15 257 0.0 1.6 0.20 1.57 1.57 96 1019.2
20260901204030 15 257 0.0 3.2 0.23 1.57 1.57 96 1019.1
20260901203511 15 307 0.0 6.4 0.28 1.57 1.57 96 1019.0
20260901203053 15 307 0.0 6.4 0.28 1.55 1.55 96 1019.0
20260901202531 15 182 0.0 6.4 0.33 1.55 1.55 96 1019.1
20260901202011 15 40 0.0 6.4 0.33 1.52 1.52 95 1019.1
20260901201555 15 208 0.0 6.4 0.36 1.52 1.52 96 1019.0
20260901201034 15 228 0.0 1.6 0.36 1.50 1.50 95 1019.0
20260901200512 15 228 0.0 0.0 0.36 1.45 1.45 95 1019.1
20260901200033 15 228 0.0 0.0 0.33 1.42 1.42 95 1019.1
20260901195513 15 228 0.0 6.4 0.30 1.40 1.40 95 1019.1
20260901195059 15 228 0.0 8.0 0.30 1.37 1.37 95 1019.1
20260901194535 15 245 0.0 8.0 0.33 1.37 1.37 95 1019.1
20260901194017 15 244 0.0 6.4 0.30 1.35 1.35 95 1019.1
20260901193559 15 244 0.0 6.4 0.25 1.30 1.30 95 1019.1
20260901193040 15 238 0.0 1.6 0.23 1.24 1.24 95 1019.0
20260901192513 15 234 0.0 6.4 0.20 1.22 1.22 95 1018.9